WORLDVIEW-2 (WV-2)

Last updated on Sun Oct 19 2025 00:02:29 GMT+0000 (Coordinated Universal Time)

1 35946U 09055A 25291.26636750 .00000296 00000+0 11343-3 0 9991 2 35946 98.4791 3.1275 0003416 207.5795 152.5211 14.37541611840882
UTC large
Height (km)
Speed (km/s)
/
Latitude / Longitude
Inclination (degrees)
Orbital Period (minutes)
Azimuth
Elevation
Range (km)
Doppler Factor

Next 0 passes for location: London (51.5072 / 0.1276)

Sorry there are no passes over London.